Date,TemperatureHighF,TemperatureAvgF,TemperatureLowF,DewpointHighF,DewpointAvgF,DewpointLowF,HumidityHigh,HumidityAvg,HumidityLow,PressureMaxIn,PressureMinIn,WindSpeedMaxMPH,WindSpeedAvgMPH,GustSpeedMaxMPH,PrecipitationSumIn
2013-3-1,35,31,29,27,26,23,89,79,69,29.83,29.73,5,2,10,0.00
2013-3-2,29,27,23,23,20,16,81,75,66,29.86,29.77,5,2,8,0.01
2013-3-3,27,23,21,18,16,14,79,74,67,29.92,29.83,8,3,18,0.00
2013-3-4,43,30,20,19,15,12,78,56,34,30.05,29.92,7,3,11,0.00
2013-3-5,47,37,32,34,29,16,96,75,46,30.00,29.51,2,0,5,0.22
2013-3-6,33,30,25,32,26,22,97,87,77,30.03,29.51,12,5,18,0.15
2013-3-7,34,31,29,27,26,24,90,83,71,30.19,30.02,7,3,9,0.01
2013-3-8,44,35,30,30,26,22,81,68,54,30.26,30.14,7,3,14,0.02
2013-3-9,60,43,28,34,29,23,84,60,33,30.28,30.15,3,1,6,0.00
2013-3-10,64,50,40,40,32,26,61,52,39,30.19,30.03,5,1,11,0.00
2013-3-11,53,49,43,50,40,30,95,72,57,30.06,29.73,6,1,13,0.26
2013-3-12,51,44,36,50,39,30,98,83,62,29.87,29.60,8,4,11,0.59
2013-3-13,36,32,25,31,25,16,92,75,56,30.07,29.85,9,4,15,0.01
2013-3-14,41,32,21,21,17,14,80,56,39,30.19,30.05,9,4,16,0.00
2013-3-15,59,43,29,39,28,16,66,56,44,30.10,29.78,6,2,10,0.00
2013-3-16,72,55,40,52,45,35,90,70,46,29.77,29.49,10,3,17,0.07
2013-3-17,54,44,33,50,42,32,97,91,82,30.02,29.71,4,0,8,0.19
2013-3-18,33,31,29,32,30,28,98,97,97,30.05,29.80,1,0,5,0.18
2013-3-19,53,41,32,40,25,7,99,62,20,29.94,29.74,11,5,17,0.01
2013-3-20,49,38,29,27,15,7,84,40,26,29.95,29.70,8,3,14,0.00
2013-3-21,30,24,20,26,15,11,84,70,52,29.92,29.66,8,4,13,0.00
2013-3-22,45,34,18,20,16,9,69,48,35,30.00,29.91,6,3,7,0.00
2013-3-23,51,39,30,30,22,16,62,49,39,29.95,29.81,4,1,7,0.00
2013-3-24,39,33,28,31,27,22,95,78,53,29.83,29.44,1,0,1,0.09
2013-3-25,38,30,26,30,26,24,96,85,61,29.70,29.43,9,3,13,0.25
2013-3-26,39,32,29,29,26,24,88,79,64,30.04,29.69,10,4,17,0.13
2013-3-27,38,32,28,27,25,22,85,76,62,30.15,30.04,7,4,12,0.04
2013-3-28,46,36,30,30,25,22,85,65,49,30.19,30.11,7,3,8,0.01
2013-3-29,54,41,31,30,26,23,77,57,38,30.22,30.08,5,1,8,0.00
2013-3-30,59,45,30,36,30,26,87,58,36,30.15,29.96,6,1,8,0.00
2013-3-31,54,48,44,51,42,30,98,82,48,29.96,29.67,5,1,7,0.39